Simultaneous Nadir Overpasses (SNOs) Predictions

Prediction of SNOs between METOP-A and TERRA Satellite Orbit:

Table of predicted SNOs for the next 14.0 days since TLE Epoch: 4/5/2015
Index Date (METOP-A) Time (METOP-A) Lat,Lon (METOP-A) SZA (METOP-A ) Date (TERRA) Time (TERRA) Lat,Lon (TERRA) SZA (TERRA ) Distance(km) Time Diff (sec)
1 04/07/2015 11:18:36 -81.33,-121.82 102.66 04/07/2015 11:19:15 -81.33,-121.89 102.66 1.20 39
2 04/07/2015 12:09:15 81.34, 46.07 77.39 04/07/2015 12:08:41 81.34, 45.88 77.35 3.20 34
3 04/10/2015 06:52:56 -81.33, -55.22 103.66 04/10/2015 06:53:28 -81.34, -55.20 103.64 0.80 32
4 04/10/2015 07:43:35 81.34, 112.64 76.39 04/10/2015 07:42:54 81.35, 112.53 76.36 2.02 41
5 04/13/2015 02:27:15 -81.34, 11.31 104.66 04/13/2015 02:27:40 -81.34, 11.27 104.64 1.01 25
6 04/1
